Ahmedabad, India

1:46 AM IST on June 29, 2017 (GMT +0530)
Ahmedabad

Weather History for VAAH - April, 2014

Change the Weather History Date:

Wednesday, April 9, 2014

  Actual Average Record
Temperature  
Mean Temperature 84 °F -  
Max Temperature 101 °F 100 °F 109 °F (2012)
Min Temperature 68 °F 76 °F 63 °F (2017)
Cooling Degree Days 20    
Growing Degree Days 34 (Base 50)    
Moisture  
Dew Point 44 °F    
Average Humidity 25    
Maximum Humidity 56    
Minimum Humidity 9    
Precipitation  
Precipitation 0.00 in 0.01 in - ()
Sea Level Pressure  
Sea Level Pressure 29.82 in    
Wind  
Wind Speed 2 mph ()    
Max Wind Speed 7 mph    
Max Gust Speed -    
Visibility 2.7 miles    
Events      
Averages and records for this station are not official NWS values.
T = Trace of Precipitation, MM = Missing Value Source: Averaged Metar Reports

Daily Weather History Graph

Daily Weather History Graph

Search for Another Location

Airport or City:

Trip Planner

Search our weather history database for the weather conditions in past years. The results will help you decide how hot, cold, wet, or windy it might be!

Date:

Astronomy

Apr. 09, 2014 Rise Set
Actual Time 6:24 AM IST 6:57 PM IST
Civil Twilight 6:01 AM IST 7:20 PM IST
Nautical Twilight 5:35 AM IST 7:47 PM IST
Astronomical Twilight 5:08 AM IST 8:14 PM IST
Moon 1:56 PM IST (4/9) 2:20 AM IST (4/9)
Length of Visible Light 13h 18m
Length of Day
12h 33m
Waxing Gibbous, 68% of the Moon is Illuminated
Apr 9
Waxing Gibbous
Apr 15
Full
Apr 22
Last Quarter
Apr 29
New
May 7
First Quarter

Hourly Weather History & Observations

Time (IST) Temp. Dew Point Humidity Pressure Visibility Wind Dir Wind Speed Gust Speed Precip Events Conditions
12:10 AM 80.6 °F 41.0 °F 24% 29.83 in 2.5 mi Calm Calm - N/A   Smoke
12:40 AM 78.8 °F 42.8 °F 28% 29.80 in 2.5 mi Calm Calm - N/A   Smoke
1:10 AM 77.0 °F 46.4 °F 34% 29.80 in 2.5 mi Calm Calm - N/A   Smoke
1:40 AM 73.4 °F 48.2 °F 41% 29.80 in 2.5 mi Calm Calm - N/A   Smoke
2:10 AM 73.4 °F 51.8 °F 47% 29.80 in 2.5 mi Calm Calm - N/A   Smoke
2:30 AM 73 °F 58 °F 50% 29.82 in 2 mi Calm Calm - -  
2:40 AM 71.6 °F 53.6 °F 53% 29.80 in 2.5 mi Calm Calm - N/A   Smoke
3:10 AM 71.6 °F 51.8 °F 50% 29.80 in 2.5 mi Calm Calm - N/A   Smoke
3:40 AM 73.4 °F 50.0 °F 44% 29.80 in 2.5 mi Calm Calm - N/A   Smoke
4:10 AM 69.8 °F 53.6 °F 56% 29.80 in 2.5 mi Calm Calm - N/A   Smoke
4:40 AM 69.8 °F 53.6 °F 56% 29.83 in 2.5 mi Variable 2.3 mph - N/A   Smoke
5:10 AM 68.0 °F 46.4 °F 46% 29.83 in 2.5 mi Variable 2.3 mph - N/A   Smoke
5:30 AM 75 °F 47 °F 26% 29.82 in 2 mi NW 5.8 mph - -  
5:40 AM 69.8 °F 44.6 °F 40% 29.83 in 2.5 mi NNW 5.8 mph - N/A   Smoke
6:10 AM 73.4 °F 37.4 °F 27% 29.83 in 2.5 mi WNW 3.5 mph - N/A   Smoke
6:40 AM 73.4 °F 35.6 °F 25% 29.83 in 2.2 mi NW 3.5 mph - N/A   Smoke
7:40 AM 75.2 °F 39.2 °F 27% 29.86 in 1.9 mi NW 3.5 mph - N/A   Smoke
8:10 AM 77.0 °F 41.0 °F 28% 29.86 in 2.2 mi NW 4.6 mph - N/A   Smoke
8:30 AM 80 °F 47 °F 21% 29.87 in 2 mi NW 4.6 mph - -  
8:40 AM 80.6 °F 42.8 °F 26% 29.86 in 2.2 mi NW 4.6 mph - N/A   Smoke
9:10 AM 82.4 °F 42.8 °F 25% 29.89 in 2.5 mi NNW 5.8 mph - N/A   Smoke
9:40 AM 86.0 °F 44.6 °F 23% 29.89 in 2.5 mi NW 4.6 mph - N/A   Smoke
10:40 AM 91.4 °F 44.6 °F 20% 29.89 in 3.1 mi WNW 4.6 mph - N/A   Smoke
11:10 AM 95.0 °F 46.4 °F 19% 29.86 in 3.1 mi West 3.5 mph - N/A   Smoke
11:30 AM 93 °F 50 °F 14% 29.89 in 2 mi NW 2.3 mph - -  
11:40 AM 96.8 °F 42.8 °F 16% 29.86 in 3.7 mi North 4.6 mph - N/A   Unknown
12:40 PM 98.6 °F 41.0 °F 14% 29.83 in 3.7 mi WNW 5.8 mph - N/A   Unknown
1:10 PM 100.4 °F 39.2 °F 12% 29.83 in 3.7 mi NNW 4.6 mph - N/A   Unknown
1:40 PM 102.2 °F 39.2 °F 11% 29.80 in 3.7 mi NNE 4.6 mph - N/A   Unknown
2:10 PM 102.2 °F 37.4 °F 11% 29.80 in 3.7 mi NW 4.6 mph - N/A   Unknown
2:30 PM 100 °F 48 °F 10% 29.82 in 2 mi NW 2.3 mph - -  
2:40 PM 102.2 °F 37.4 °F 11% 29.77 in 3.7 mi NW 4.6 mph - N/A   Unknown
3:10 PM 104.0 °F 35.6 °F 9% 29.77 in 3.7 mi WSW 5.8 mph - N/A   Unknown
3:40 PM 102.2 °F 35.6 °F 10% 29.74 in 3.7 mi WNW 6.9 mph - N/A   Unknown
4:10 PM 104.0 °F 37.4 °F 10% 29.74 in 3.7 mi West 6.9 mph - N/A   Unknown
4:40 PM 104.0 °F 35.6 °F 9% 29.74 in 3.7 mi WSW 5.8 mph - N/A   Unknown
5:10 PM 102.2 °F 33.8 °F 9% 29.74 in 3.7 mi WSW 5.8 mph - N/A   Unknown
5:30 PM 99 °F 47 °F 10% 29.78 in 2 mi WSW 3.5 mph - -  
6:10 PM 100.4 °F 37.4 °F 11% 29.74 in 3.7 mi NW 3.5 mph - N/A   Unknown
7:40 PM 91.4 °F 39.2 °F 16% 29.77 in 2.5 mi Calm Calm - N/A   Smoke
8:10 PM 87.8 °F 39.2 °F 18% 29.80 in 2.5 mi Calm Calm - N/A   Smoke
8:30 PM 81 °F 54 °F 28% 29.83 in 2 mi Calm Calm - -  
8:40 PM 87.8 °F 41.0 °F 19% 29.80 in 2.5 mi Calm Calm - N/A   Smoke
9:10 PM 86.0 °F 42.8 °F 22% 29.83 in 2.5 mi Calm Calm - N/A   Smoke
9:40 PM 82.4 °F 41.0 °F 23% 29.83 in 2.5 mi Calm Calm - N/A   Smoke
10:10 PM 86.0 °F 39.2 °F 19% 29.86 in 2.5 mi SW 6.9 mph - N/A   Smoke
10:40 PM 87.8 °F 42.8 °F 21% 29.86 in 2.5 mi SSW 5.8 mph - N/A   Smoke
11:10 PM 86.0 °F 48.2 °F 27% 29.86 in 2.5 mi SW 4.6 mph - N/A   Smoke
11:30 PM 79 °F 54 °F 31% 29.87 in 2 mi Calm Calm - -  
11:40 PM 84.2 °F 46.4 °F 27% 29.86 in 2.5 mi SW 5.8 mph - N/A   Smoke